User: anonymous   Login
Location: Heilwood
(40.6210°N, 78.9150°W)
Time: 05:30:00
(UTC-05:00)
Language:

BREEZE-M DEB (TANK) - Orbit

View from above orbital plane
View from above orbital plane
View from above satellite
View from above satellite

Ground track
Ground track

The orbit data is extracted from the following two-line orbital elements,

1 29649U 06056B   17319.72127986  .00002457  00000-0  37230-3 0  9996
2 29649  49.4932 122.9361 5386090 256.1141  41.0213  4.99888579195348
Epoch (UTC): 15 November 2017 17:18:38
Eccentricity: 0.5386090
inclination: 49.4932°
perigee height: 288 km
apogee height: 15852 km
right ascension of ascending node: 122.9361°
argument of perigee: 256.1141°
revolutions per day: 4.99888579
mean anomaly at epoch: 41.0213°
orbit number at epoch: 19534

The dashed part of the orbit path shows where the satellite is in the earth's shadow,  

DLR